User: anonymous   Login
Location: Trois-Rivi�res
(46.3500°N, 72.5500°W)
Time: 10:16:01
(UTC-05:00)
Language:

SJ-11-01 - Orbit

View from above orbital plane
View from above orbital plane
View from above satellite
View from above satellite

Ground track
Ground track

The orbit data is extracted from the following two-line orbital elements,

1 36088U 09061A   16041.04586341  .00000239  00000-0  59703-4 0  9996
2 36088  98.2075  89.9613 0011823  11.7480 348.4002 14.59786482332698
Epoch (UTC): 10 February 2016 01:06:02
Eccentricity: 0.0011823
inclination: 98.2075°
perigee height: 685 km
apogee height: 702 km
right ascension of ascending node: 89.9613°
argument of perigee: 11.7480°
revolutions per day: 14.59786482
mean anomaly at epoch: 348.4002°
orbit number at epoch: 33269

The dashed part of the orbit path shows where the satellite is in the earth's shadow,  

DLR